Regional Weather Roundup
Issued by NWS

Home | Current Version | Previous Version | Graphics & Text | Print | Product List | Glossary On
Versions: 1 2 3 4 5 6 7 8 9 10 11 12 13 14 15 16 17 18 19 20 21 22 23 24 25 26 27 28 29 30 31 32 33 34 35 36 37 38 39 40 41 42 43 44 45 46 47 48 49 50
000
ASUS43 KOAX 170002
RWRNE

WEATHER ROUNDUP FOR NEBRASKA
NATIONAL WEATHER SERVICE OMAHA NE
700 PM CDT WED APR 16 2014

NOTES: SATELLITE DATA IS BEING USED TO AUGMENT CLOUD COVER ABOVE
       12000 FEET.
       "FAIR" INDICATES FEW OR NO CLOUDS BELOW 12,000 FEET WITH NO
       SIGNIFICANT WEATHER AND/OR OBSTRUCTIONS TO VISIBILITY.

  * THESE STATIONS DO NOT REPORT WEATHER SUCH AS RAIN...SNOW OR FOG.

NEZ001>004-019>022-054>056-170100-
NEBRASKA PANHANDLE

CITY           SKY/WX    TMP DP  RH WIND       PRES   REMARKS
SCOTTSBLUFF    MOSUNNY   52  26  36 NE14      29.98R
6HR MIN TEMP:  50; 6HR MAX TEMP:  55;

ALLIANCE       MOSUNNY   44  32  62 NE14      30.00R
6HR MIN TEMP:  43; 6HR MAX TEMP:  50; 6HR PCP: TRACE;

CHADRON        PTSUNNY   45  33  63 NE13      30.02R
6HR MIN TEMP:  43; 6HR MAX TEMP:  47;

KIMBALL        SUNNY     48  20  33 NE20      29.94S
SIDNEY         MOSUNNY   50  29  44 NE22      29.96F
6HR MIN TEMP:  49; 6HR MAX TEMP:  57;

$$

NEZ057>060-069>072-079>082-170100-
SOUTHWEST NEBRASKA

CITY           SKY/WX    TMP DP  RH WIND       PRES   REMARKS
NORTH PLATTE   MOSUNNY   44  33  65 N14       30.02R
6HR MIN TEMP:  44; 6HR MAX TEMP:  53;

IMPERIAL       MOSUNNY   51  33  50 N22       29.98R
6HR MIN TEMP:  51; 6HR MAX TEMP:  56; 6HR PCP: TRACE;

LEXINGTON      SUNNY     48  33  56 N22       30.00R
MCCOOK         PTSUNNY   53  34  48 N20       29.97R
6HR MIN TEMP:  53; 6HR MAX TEMP:  60;

OGALLALA       MOSUNNY   48  32  53 NE14      30.01R
$$

NEZ005>010-023>029-035>040-094-170100-
NORTH CENTRAL NEBRASKA

CITY           SKY/WX    TMP DP  RH WIND       PRES   REMARKS
VALENTINE      CLOUDY    32  26  78 N15G23    30.09R WCI  22
6HR MIN TEMP:  32; 6HR MAX TEMP:  37;

AINSWORTH      CLOUDY    32  28  83 N22G29    30.07R WCI  20
BROKEN BOW     CLOUDY    38  29  70 N25G32    30.02R WCI  27
6HR MIN TEMP:  37; 6HR MAX TEMP:  48;

O`NEILL        CLOUDY    35  26  70 N23       30.03R WCI  23
ORD            CLOUDY    35  27  72 N26G33    30.02R WCI  22
6HR MIN TEMP:  35; 6HR MAX TEMP:  45; 6HR PCP: TRACE;

THEDFORD       CLOUDY    37  30  76 N15G23    30.05R WCI  27
$$

NEZ041-046>049-061>064-073>077-083>087-170100-
SOUTH CENTRAL NEBRASKA

CITY           SKY/WX    TMP DP  RH WIND       PRES   REMARKS
GRAND ISLAND   MOSUNNY   41  29  62 NW26G33   30.00R
6HR MIN TEMP:  41; 6HR MAX TEMP:  60;

AURORA         MOSUNNY   42  31  65 NW30      29.98R
HASTINGS       MOSUNNY   45  31  58 N24G31    29.98R
6HR MIN TEMP:  45; 6HR MAX TEMP:  61;

HEBRON         SUNNY     49  33  54 NW21G28   29.96R
HOLDREGE       MOSUNNY   49  33  55 N17G24    29.98R
KEARNEY *      MOSUNNY   45  32  61 N24G30    29.99R
YORK           MOSUNNY   41  32  70 NW25G38   29.96R
$$

NEZ011>018-030>034-042>045-170100-
NORTHEAST NEBRASKA

CITY           SKY/WX    TMP DP  RH WIND       PRES   REMARKS
NORFOLK        CLOUDY    37  27  67 NW29G35   29.95R WCI  25
6HR MIN TEMP:  37; 6HR MAX TEMP:  57; 6HR PCP: TRACE;

ALBION         CLOUDY    37  27  68 NW22G28   29.99R WCI  26
BLAIR          CLOUDY    40  32  73 W22G35    29.88R WCI  29
COLUMBUS *     CLOUDY    39  25  56 NW28G35   29.96R WCI  28
FREMONT        CLOUDY    40  32  72 NW28G36   29.93R WCI  29
TEKAMAH        CLOUDY    40  32  73 NW31G44   29.87R WCI  28
6HR MIN TEMP:  40; 6HR MAX TEMP:  70; 6HR PCP: TRACE;

$$

NEZ050>053-065>068-078-088>093-170100-
SOUTHEAST NEBRASKA

CITY           SKY/WX    TMP DP  RH WIND       PRES   REMARKS
LINCOLN        SUNNY     47  30  51 N29G36    29.94R
6HR MIN TEMP:  47; 6HR MAX TEMP:  70;

OMAHA EPPLEY   MOSUNNY   43  32  65 NW28G35   29.88R
6HR MIN TEMP:  43; 6HR MAX TEMP:  69;

BEATRICE       SUNNY     49  32  52 NW24G35   29.93R
NEBRASKA CITY  MOSUNNY   49  32  52 NW23G30   29.87R
PLATTSMOUTH    SUNNY     46  31  57 NW24G35   29.87R
$$

NEZ044-045-051>053-067-170100-
OMAHA AREA

CITY           SKY/WX    TMP DP  RH WIND       PRES   REMARKS
OMAHA EPPLEY   MOSUNNY   43  32  65 NW28G35   29.88R
6HR MIN TEMP:  43; 6HR MAX TEMP:  69;

BLAIR          CLOUDY    40  32  73 W22G35    29.88R WCI  29
FREMONT        CLOUDY    40  32  72 NW28G36   29.93R WCI  29
MILLARD        MOSUNNY   42  32  66 NW22G29   29.89R
PLATTSMOUTH    SUNNY     46  31  57 NW24G35   29.87R
WAHOO          FAIR      42  31  64 NW29G38   29.91R
$$



USA.gov is the U.S. government's official web portal to all federal, state and local government web resources and services.